GEFSNGP_prec_meanprecacc_096.txt.gz
Total_Precipitation_Accumulation
0.18 0.18 0.15 0.12 0.12 0.13 0.15 0.18 0.26 0.40 0.63 0.83 1.04 1.15 1.24 1.27 1.20 1.08 0.99 0.88 0.75 0.68 0.59 0.48 0.43 0.40 0.37 0.34 0.30 0.24 0.20 0.19 0.21 0.23 0.25 0.25 0.25 0.25 0.25 0.25 0.23 0.22 0.19 0.16
0.16 0.17 0.18 0.16 0.15 0.13 0.18 0.22 0.33 0.52 0.79 1.03 1.18 1.18 1.22 1.26 1.18 1.14 1.11 1.06 1.02 0.95 0.83 0.69 0.57 0.50 0.45 0.41 0.37 0.33 0.33 0.34 0.34 0.33 0.32 0.32 0.31 0.30 0.29 0.27 0.23 0.19 0.15 0.12
0.14 0.14 0.22 0.33 0.26 0.22 0.28 0.33 0.43 0.62 0.76 0.93 1.03 1.12 1.12 1.12 1.16 1.23 1.34 1.36 1.26 1.10 0.95 0.83 0.73 0.66 0.62 0.56 0.51 0.49 0.48 0.45 0.40 0.37 0.35 0.33 0.30 0.31 0.29 0.24 0.19 0.15 0.12 0.08
0.14 0.18 0.36 0.41 0.26 0.28 0.40 0.48 0.50 0.57 0.61 0.77 0.90 0.99 1.03 1.06 1.14 1.23 1.28 1.24 1.13 0.98 0.86 0.82 0.80 0.77 0.69 0.60 0.56 0.53 0.51 0.47 0.39 0.32 0.29 0.28 0.29 0.27 0.21 0.16 0.15 0.13 0.10 0.07
0.21 0.30 0.43 0.50 0.30 0.30 0.44 0.56 0.48 0.55 0.55 0.67 0.73 0.80 0.93 1.01 1.07 1.15 1.11 1.02 0.97 0.91 0.88 0.89 0.87 0.78 0.70 0.63 0.56 0.52 0.47 0.38 0.29 0.23 0.23 0.22 0.20 0.17 0.15 0.15 0.14 0.09 0.06 0.07
0.34 0.41 0.52 0.54 0.27 0.24 0.44 0.74 0.57 0.60 0.59 0.60 0.65 0.82 0.86 0.85 0.83 0.86 0.87 0.90 0.92 0.98 1.02 0.97 0.85 0.69 0.60 0.53 0.45 0.38 0.30 0.24 0.20 0.17 0.14 0.12 0.13 0.13 0.13 0.13 0.11 0.07 0.05 0.06
0.49 0.61 0.65 0.33 0.16 0.29 0.62 0.69 0.58 0.60 0.64 0.63 0.66 0.69 0.59 0.59 0.67 0.75 0.82 0.86 0.89 0.89 0.86 0.79 0.67 0.56 0.52 0.44 0.36 0.25 0.18 0.15 0.12 0.09 0.08 0.07 0.10 0.12 0.12 0.10 0.10 0.08 0.07 0.08
0.57 0.69 0.74 0.31 0.20 0.37 0.47 0.40 0.42 0.47 0.51 0.50 0.51 0.51 0.53 0.54 0.58 0.65 0.76 0.80 0.77 0.70 0.63 0.53 0.44 0.41 0.40 0.33 0.23 0.14 0.11 0.08 0.07 0.06 0.04 0.05 0.10 0.11 0.11 0.12 0.11 0.09 0.09 0.08
0.67 0.76 0.56 0.30 0.26 0.29 0.34 0.35 0.35 0.40 0.41 0.43 0.46 0.50 0.58 0.63 0.65 0.64 0.63 0.63 0.57 0.47 0.40 0.33 0.27 0.27 0.27 0.20 0.13 0.10 0.10 0.10 0.08 0.06 0.06 0.05 0.09 0.10 0.10 0.10 0.09 0.07 0.07 0.08
0.58 0.64 0.46 0.30 0.25 0.24 0.25 0.27 0.30 0.38 0.42 0.41 0.41 0.40 0.45 0.51 0.53 0.52 0.47 0.42 0.36 0.30 0.26 0.21 0.16 0.15 0.13 0.09 0.08 0.11 0.12 0.11 0.10 0.11 0.10 0.08 0.08 0.06 0.07 0.07 0.06 0.07 0.08 0.09
0.65 0.65 0.51 0.41 0.29 0.25 0.28 0.29 0.34 0.38 0.37 0.34 0.30 0.28 0.28 0.30 0.31 0.29 0.26 0.23 0.20 0.18 0.15 0.10 0.08 0.06 0.05 0.05 0.06 0.10 0.11 0.10 0.09 0.10 0.11 0.11 0.09 0.04 0.03 0.04 0.02 0.04 0.07 0.09
0.77 0.63 0.50 0.48 0.39 0.33 0.33 0.30 0.27 0.24 0.24 0.26 0.26 0.25 0.24 0.24 0.22 0.20 0.16 0.13 0.12 0.10 0.08 0.06 0.04 0.03 0.02 0.02 0.04 0.10 0.11 0.09 0.07 0.07 0.07 0.08 0.13 0.10 0.02 0.01 0.01 0.02 0.03 0.05
0.49 0.40 0.37 0.36 0.36 0.39 0.31 0.24 0.21 0.17 0.14 0.17 0.20 0.20 0.18 0.18 0.16 0.12 0.10 0.08 0.07 0.06 0.04 0.03 0.02 0.02 0.02 0.02 0.02 0.05 0.08 0.07 0.05 0.05 0.05 0.07 0.12 0.17 0.15 0.08 0.04 0.04 0.03 0.04
0.37 0.39 0.42 0.32 0.26 0.25 0.18 0.16 0.14 0.11 0.10 0.11 0.13 0.13 0.12 0.11 0.09 0.07 0.06 0.04 0.02 0.01 0.01 0.01 0.01 0.01 0.01 0.01 0.01 0.03 0.06 0.04 0.03 0.05 0.05 0.07 0.09 0.11 0.13 0.16 0.18 0.17 0.09 0.04
0.32 0.31 0.29 0.20 0.14 0.13 0.10 0.08 0.08 0.09 0.09 0.10 0.09 0.08 0.08 0.07 0.06 0.04 0.02 0.01 0.01 0.01 0.00 0.01 0.02 0.01 0.00 0.00 0.01 0.03 0.05 0.07 0.05 0.04 0.04 0.04 0.06 0.08 0.09 0.11 0.15 0.16 0.15 0.10
0.22 0.18 0.13 0.11 0.11 0.11 0.10 0.08 0.06 0.07 0.07 0.07 0.07 0.06 0.05 0.03 0.03 0.02 0.01 0.01 0.01 0.02 0.01 0.01 0.01 0.01 0.00 0.01 0.02 0.04 0.03 0.01 0.02 0.02 0.02 0.02 0.04 0.05 0.07 0.09 0.13 0.17 0.17 0.14
0.15 0.14 0.12 0.10 0.09 0.10 0.09 0.07 0.06 0.05 0.05 0.06 0.05 0.03 0.02 0.02 0.02 0.02 0.01 0.00 0.00 0.00 0.01 0.01 0.01 0.00 0.00 0.01 0.01 0.02 0.03 0.01 0.01 0.01 0.02 0.03 0.03 0.03 0.05 0.08 0.12 0.16 0.16 0.13
0.08 0.08 0.08 0.07 0.05 0.05 0.04 0.04 0.03 0.03 0.03 0.02 0.02 0.01 0.01 0.02 0.02 0.01 0.00 0.00 0.00 0.00 0.00 0.00 0.00 0.00 0.00 0.00 0.00 0.01 0.01 0.01 0.01 0.01 0.01 0.01 0.01 0.02 0.04 0.06 0.08 0.12 0.14 0.15
0.05 0.04 0.04 0.03 0.02 0.02 0.02 0.02 0.02 0.01 0.01 0.01 0.01 0.01 0.01 0.01 0.01 0.00 0.00 0.00 0.00 0.01 0.01 0.00 0.00 0.00 0.00 0.00 0.00 0.00 0.00 0.00 0.00 0.01 0.00 0.00 0.01 0.02 0.03 0.05 0.07 0.08 0.11 0.14
0.03 0.02 0.02 0.02 0.02 0.02 0.02 0.01 0.01 0.00 0.01 0.02 0.02 0.00 0.00 0.00 0.00 0.00 0.00 0.00 0.00 0.00 0.00 0.00 0.00 0.00 0.00 0.00 0.00 0.00 0.00 0.00 0.00 0.00 0.00 0.00 0.01 0.01 0.02 0.03 0.04 0.07 0.09 0.13
0.03 0.02 0.01 0.01 0.01 0.01 0.01 0.01 0.01 0.01 0.01 0.02 0.01 0.00 0.00 0.00 0.00 0.00 0.00 0.01 0.01 0.00 0.00 0.00 0.00 0.00 0.00 0.00 0.00 0.00 0.00 0.00 0.00 0.00 0.00 0.00 0.01 0.01 0.01 0.02 0.02 0.04 0.06 0.08
0.03 0.02 0.01 0.01 0.01 0.01 0.01 0.01 0.01 0.01 0.02 0.02 0.01 0.00 0.00 0.00 0.00 0.00 0.00 0.00 0.01 0.00 0.00 0.00 0.00 0.00 0.00 0.00 0.00 0.00 0.00 0.00 0.00 0.00 0.00 0.00 0.00 0.01 0.01 0.01 0.01 0.02 0.03 0.04
0.07 0.04 0.02 0.01 0.01 0.02 0.02 0.02 0.02 0.02 0.02 0.01 0.00 0.00 0.00 0.00 0.00 0.00 0.00 0.00 0.00 0.00 0.00 0.00 0.00 0.00 0.00 0.00 0.00 0.00 0.00 0.00 0.00 0.00 0.00 0.00 0.00 0.00 0.00 0.00 0.01 0.01 0.01 0.02
0.09 0.06 0.04 0.03 0.02 0.02 0.03 0.02 0.03 0.02 0.01 0.01 0.00 0.00 0.00 0.00 0.00 0.00 0.00 0.00 0.00 0.00 0.00 0.00 0.00 0.00 0.00 0.00 0.00 0.00 0.00 0.00 0.00 0.00 0.00 0.00 0.00 0.00 0.00 0.00 0.00 0.00 0.01 0.01
0.11 0.08 0.06 0.05 0.06 0.05 0.04 0.03 0.03 0.02 0.01 0.00 0.00 0.00 0.00 0.00 0.00 0.00 0.00 0.00 0.00 0.00 0.00 0.00 0.00 0.00 0.00 0.00 0.00 0.00 0.00 0.00 0.00 0.00 0.00 0.00 0.00 0.00 0.00 0.00 0.00 0.00 0.00 0.00
0.16 0.14 0.11 0.09 0.08 0.06 0.03 0.03 0.03 0.01 0.00 0.00 0.00 0.00 0.00 0.00 0.00 0.00 0.00 0.00 0.00 0.00 0.00 0.00 0.00 0.00 0.00 0.00 0.00 0.00 0.00 0.00 0.00 0.00 0.00 0.00 0.00 0.00 0.00 0.00 0.00 0.00 0.00 0.00
0.22 0.16 0.13 0.09 0.06 0.03 0.02 0.02 0.01 0.00 0.00 0.00 0.00 0.00 0.00 0.00 0.00 0.00 0.00 0.00 0.00 0.00 0.00 0.00 0.00 0.00 0.00 0.00 0.00 0.00 0.00 0.00 0.00 0.00 0.00 0.00 0.00 0.00 0.00 0.00 0.00 0.00 0.00 0.00

GEFSNGP_prec_meanprecacc_102.txt.gz
Total_Precipitation_Accumulation
0.18 0.19 0.16 0.13 0.12 0.13 0.15 0.18 0.27 0.40 0.63 0.85 1.08 1.19 1.29 1.36 1.26 1.14 1.07 0.96 0.82 0.76 0.70 0.60 0.53 0.48 0.43 0.40 0.35 0.29 0.25 0.24 0.25 0.26 0.26 0.26 0.26 0.25 0.25 0.25 0.23 0.22 0.19 0.16
0.16 0.17 0.18 0.17 0.16 0.14 0.19 0.23 0.34 0.53 0.80 1.05 1.21 1.23 1.27 1.33 1.24 1.19 1.17 1.14 1.10 1.04 0.94 0.81 0.65 0.56 0.50 0.45 0.41 0.36 0.35 0.36 0.36 0.35 0.33 0.32 0.31 0.30 0.30 0.27 0.24 0.19 0.15 0.12
0.15 0.14 0.22 0.35 0.28 0.23 0.29 0.34 0.44 0.63 0.78 0.95 1.08 1.19 1.18 1.18 1.23 1.28 1.39 1.44 1.36 1.19 1.04 0.91 0.79 0.71 0.65 0.58 0.54 0.51 0.50 0.47 0.42 0.37 0.36 0.33 0.30 0.31 0.29 0.24 0.19 0.15 0.12 0.08
0.15 0.19 0.37 0.42 0.27 0.28 0.41 0.49 0.51 0.58 0.62 0.78 0.94 1.02 1.06 1.11 1.21 1.30 1.35 1.31 1.20 1.03 0.91 0.86 0.85 0.81 0.71 0.63 0.58 0.55 0.53 0.49 0.40 0.32 0.29 0.28 0.29 0.27 0.21 0.16 0.15 0.13 0.10 0.07
0.22 0.31 0.44 0.51 0.31 0.30 0.44 0.57 0.51 0.56 0.56 0.68 0.74 0.81 0.96 1.05 1.13 1.23 1.19 1.10 1.04 0.97 0.92 0.93 0.90 0.81 0.72 0.65 0.58 0.53 0.48 0.38 0.29 0.23 0.23 0.22 0.20 0.17 0.15 0.15 0.14 0.09 0.06 0.07
0.35 0.42 0.54 0.55 0.28 0.25 0.44 0.75 0.59 0.62 0.60 0.61 0.67 0.83 0.87 0.88 0.87 0.92 0.93 0.96 0.99 1.05 1.09 1.03 0.90 0.73 0.63 0.55 0.46 0.39 0.31 0.24 0.20 0.18 0.14 0.13 0.13 0.13 0.13 0.13 0.11 0.07 0.05 0.06
0.49 0.62 0.65 0.33 0.16 0.29 0.62 0.70 0.59 0.62 0.65 0.64 0.67 0.71 0.60 0.61 0.70 0.78 0.86 0.91 0.94 0.94 0.92 0.84 0.72 0.62 0.57 0.47 0.37 0.27 0.20 0.16 0.13 0.10 0.08 0.07 0.10 0.12 0.12 0.10 0.10 0.08 0.07 0.08
0.57 0.69 0.74 0.31 0.20 0.38 0.47 0.40 0.42 0.48 0.52 0.51 0.51 0.52 0.54 0.56 0.61 0.69 0.79 0.84 0.81 0.75 0.70 0.59 0.48 0.46 0.45 0.37 0.25 0.17 0.13 0.10 0.08 0.06 0.04 0.05 0.10 0.11 0.11 0.12 0.11 0.09 0.09 0.08
0.67 0.76 0.56 0.30 0.26 0.29 0.34 0.35 0.35 0.40 0.42 0.44 0.47 0.51 0.59 0.65 0.67 0.67 0.65 0.66 0.60 0.51 0.45 0.38 0.32 0.32 0.31 0.24 0.16 0.12 0.11 0.10 0.08 0.06 0.06 0.05 0.09 0.11 0.10 0.10 0.09 0.07 0.07 0.08
0.58 0.64 0.46 0.30 0.25 0.24 0.25 0.27 0.30 0.38 0.42 0.41 0.41 0.41 0.46 0.52 0.55 0.53 0.49 0.45 0.39 0.33 0.28 0.24 0.20 0.19 0.16 0.12 0.11 0.13 0.13 0.11 0.10 0.11 0.11 0.08 0.08 0.06 0.07 0.07 0.06 0.07 0.08 0.10
0.65 0.65 0.51 0.41 0.29 0.25 0.28 0.29 0.34 0.38 0.37 0.34 0.30 0.28 0.28 0.30 0.32 0.30 0.27 0.24 0.21 0.19 0.16 0.13 0.10 0.09 0.08 0.07 0.08 0.12 0.12 0.10 0.09 0.10 0.11 0.11 0.09 0.04 0.03 0.04 0.02 0.04 0.07 0.09
0.77 0.63 0.50 0.48 0.39 0.33 0.33 0.30 0.27 0.24 0.24 0.26 0.26 0.25 0.24 0.24 0.23 0.20 0.16 0.14 0.12 0.11 0.09 0.07 0.05 0.04 0.03 0.03 0.05 0.11 0.11 0.09 0.07 0.07 0.07 0.08 0.13 0.10 0.02 0.01 0.01 0.02 0.03 0.05
0.49 0.40 0.37 0.36 0.36 0.39 0.31 0.24 0.21 0.17 0.14 0.17 0.20 0.20 0.18 0.18 0.16 0.12 0.10 0.09 0.08 0.07 0.05 0.04 0.03 0.02 0.02 0.02 0.03 0.06 0.09 0.07 0.05 0.05 0.05 0.07 0.12 0.17 0.15 0.08 0.04 0.04 0.03 0.04
0.37 0.39 0.42 0.32 0.26 0.25 0.18 0.16 0.14 0.12 0.10 0.11 0.13 0.13 0.12 0.11 0.09 0.07 0.06 0.04 0.03 0.02 0.01 0.01 0.01 0.02 0.01 0.01 0.02 0.03 0.06 0.04 0.03 0.05 0.05 0.07 0.09 0.11 0.13 0.16 0.18 0.17 0.09 0.04
0.32 0.31 0.29 0.20 0.14 0.13 0.10 0.08 0.08 0.09 0.09 0.10 0.09 0.08 0.08 0.07 0.06 0.04 0.02 0.01 0.01 0.01 0.01 0.01 0.02 0.02 0.01 0.00 0.01 0.03 0.05 0.07 0.05 0.04 0.04 0.05 0.06 0.08 0.09 0.11 0.15 0.16 0.15 0.10
0.22 0.18 0.13 0.11 0.11 0.11 0.10 0.08 0.06 0.07 0.07 0.07 0.07 0.07 0.05 0.03 0.03 0.02 0.02 0.01 0.01 0.02 0.01 0.01 0.01 0.01 0.01 0.01 0.02 0.04 0.03 0.01 0.02 0.02 0.02 0.03 0.04 0.05 0.07 0.09 0.13 0.17 0.17 0.14
0.15 0.14 0.12 0.10 0.09 0.10 0.09 0.07 0.06 0.05 0.05 0.06 0.05 0.03 0.02 0.02 0.02 0.02 0.01 0.01 0.00 0.00 0.01 0.01 0.01 0.00 0.00 0.01 0.01 0.02 0.03 0.01 0.01 0.01 0.02 0.03 0.03 0.03 0.05 0.08 0.12 0.16 0.16 0.13
0.08 0.08 0.08 0.07 0.05 0.05 0.04 0.04 0.03 0.03 0.03 0.02 0.02 0.01 0.02 0.02 0.02 0.01 0.00 0.00 0.00 0.00 0.00 0.00 0.00 0.00 0.00 0.00 0.00 0.01 0.01 0.01 0.01 0.01 0.01 0.01 0.01 0.02 0.04 0.06 0.08 0.12 0.14 0.15
0.05 0.04 0.04 0.03 0.02 0.02 0.02 0.02 0.02 0.01 0.01 0.01 0.01 0.01 0.01 0.01 0.01 0.00 0.00 0.00 0.00 0.01 0.01 0.00 0.00 0.00 0.00 0.00 0.00 0.00 0.00 0.00 0.00 0.01 0.00 0.00 0.01 0.02 0.03 0.05 0.07 0.08 0.11 0.14
0.03 0.02 0.02 0.02 0.02 0.02 0.02 0.01 0.01 0.00 0.01 0.02 0.02 0.00 0.00 0.00 0.00 0.00 0.00 0.00 0.00 0.00 0.00 0.00 0.00 0.00 0.00 0.00 0.00 0.00 0.00 0.00 0.00 0.00 0.00 0.00 0.01 0.01 0.02 0.03 0.04 0.07 0.09 0.13
0.03 0.02 0.01 0.01 0.01 0.01 0.01 0.01 0.01 0.01 0.01 0.02 0.01 0.00 0.00 0.00 0.00 0.00 0.00 0.01 0.01 0.00 0.00 0.00 0.00 0.00 0.00 0.00 0.00 0.00 0.00 0.00 0.00 0.00 0.00 0.00 0.01 0.01 0.01 0.02 0.02 0.04 0.06 0.08
0.03 0.02 0.01 0.01 0.01 0.01 0.01 0.02 0.01 0.01 0.02 0.02 0.01 0.00 0.00 0.00 0.00 0.00 0.00 0.00 0.01 0.00 0.00 0.00 0.00 0.00 0.00 0.00 0.00 0.00 0.00 0.00 0.00 0.00 0.00 0.00 0.00 0.01 0.01 0.01 0.01 0.02 0.03 0.04
0.07 0.04 0.02 0.01 0.01 0.02 0.02 0.02 0.02 0.02 0.02 0.01 0.00 0.00 0.00 0.00 0.00 0.00 0.00 0.00 0.00 0.00 0.00 0.00 0.00 0.00 0.00 0.00 0.00 0.00 0.00 0.00 0.00 0.00 0.00 0.00 0.00 0.00 0.00 0.00 0.01 0.01 0.01 0.02
0.09 0.06 0.04 0.03 0.02 0.02 0.03 0.02 0.03 0.03 0.01 0.01 0.00 0.00 0.00 0.00 0.00 0.00 0.00 0.00 0.00 0.00 0.00 0.00 0.00 0.00 0.00 0.00 0.00 0.00 0.00 0.00 0.00 0.00 0.00 0.00 0.00 0.00 0.00 0.00 0.00 0.00 0.01 0.01
0.11 0.08 0.06 0.05 0.06 0.05 0.04 0.03 0.03 0.02 0.01 0.00 0.00 0.00 0.00 0.00 0.00 0.00 0.00 0.00 0.00 0.00 0.00 0.00 0.00 0.00 0.00 0.00 0.00 0.00 0.00 0.00 0.00 0.00 0.00 0.00 0.00 0.00 0.00 0.00 0.00 0.00 0.00 0.00
0.16 0.14 0.11 0.09 0.08 0.06 0.03 0.03 0.03 0.01 0.00 0.00 0.00 0.00 0.00 0.00 0.00 0.00 0.00 0.00 0.00 0.00 0.00 0.00 0.00 0.00 0.00 0.00 0.00 0.00 0.00 0.00 0.00 0.00 0.00 0.00 0.00 0.00 0.00 0.00 0.00 0.00 0.00 0.00
0.22 0.16 0.13 0.09 0.06 0.03 0.02 0.02 0.01 0.00 0.00 0.00 0.00 0.00 0.00 0.00 0.00 0.00 0.00 0.00 0.00 0.00 0.00 0.00 0.00 0.00 0.00 0.00 0.00 0.00 0.00 0.00 0.00 0.00 0.00 0.00 0.00 0.00 0.00 0.00 0.00 0.00 0.00 0.00

GEFSNGP_prec_meanprecacc_108.txt.gz
Total_Precipitation_Accumulation
0.18 0.19 0.16 0.13 0.13 0.14 0.17 0.21 0.30 0.42 0.64 0.87 1.11 1.24 1.35 1.41 1.32 1.19 1.13 1.01 0.88 0.82 0.77 0.67 0.64 0.59 0.55 0.52 0.47 0.40 0.37 0.36 0.37 0.37 0.36 0.33 0.31 0.28 0.27 0.27 0.24 0.23 0.20 0.17
0.17 0.18 0.19 0.18 0.16 0.15 0.21 0.25 0.36 0.55 0.82 1.08 1.24 1.27 1.33 1.39 1.31 1.24 1.22 1.19 1.17 1.11 1.03 0.90 0.75 0.65 0.60 0.55 0.51 0.45 0.44 0.45 0.45 0.43 0.39 0.37 0.35 0.33 0.32 0.29 0.25 0.20 0.16 0.13
0.15 0.14 0.23 0.36 0.29 0.24 0.30 0.36 0.47 0.66 0.81 0.97 1.11 1.24 1.25 1.25 1.30 1.35 1.46 1.50 1.44 1.28 1.13 0.99 0.87 0.80 0.74 0.66 0.61 0.59 0.57 0.53 0.47 0.42 0.39 0.36 0.32 0.33 0.31 0.26 0.20 0.17 0.13 0.09
0.16 0.20 0.39 0.44 0.28 0.29 0.42 0.51 0.54 0.60 0.64 0.80 0.98 1.08 1.11 1.16 1.29 1.38 1.44 1.39 1.29 1.14 1.01 0.95 0.93 0.90 0.80 0.70 0.64 0.60 0.57 0.52 0.43 0.35 0.31 0.30 0.30 0.28 0.22 0.18 0.16 0.14 0.11 0.08
0.24 0.33 0.46 0.52 0.32 0.31 0.45 0.58 0.52 0.58 0.58 0.70 0.77 0.87 1.01 1.10 1.19 1.29 1.26 1.18 1.14 1.09 1.02 1.01 0.99 0.90 0.80 0.72 0.63 0.57 0.51 0.41 0.31 0.25 0.24 0.23 0.21 0.18 0.16 0.16 0.15 0.10 0.07 0.07
0.36 0.43 0.55 0.56 0.28 0.25 0.45 0.77 0.61 0.64 0.64 0.64 0.70 0.87 0.92 0.93 0.92 0.96 0.97 1.02 1.09 1.16 1.19 1.12 0.98 0.79 0.69 0.62 0.51 0.42 0.33 0.26 0.21 0.19 0.15 0.13 0.13 0.14 0.14 0.14 0.12 0.07 0.05 0.07
0.50 0.62 0.66 0.34 0.17 0.29 0.64 0.73 0.63 0.64 0.67 0.66 0.71 0.75 0.64 0.65 0.74 0.82 0.89 0.96 1.02 1.04 1.02 0.94 0.82 0.69 0.62 0.51 0.41 0.29 0.21 0.18 0.15 0.11 0.09 0.08 0.11 0.13 0.12 0.11 0.11 0.09 0.08 0.10
0.57 0.69 0.74 0.32 0.21 0.38 0.49 0.43 0.44 0.49 0.53 0.52 0.53 0.55 0.58 0.60 0.64 0.71 0.82 0.88 0.87 0.82 0.77 0.66 0.55 0.51 0.51 0.42 0.28 0.19 0.15 0.12 0.10 0.07 0.04 0.05 0.11 0.12 0.12 0.13 0.12 0.10 0.10 0.10
0.67 0.76 0.56 0.30 0.27 0.30 0.36 0.36 0.36 0.40 0.43 0.45 0.48 0.52 0.61 0.67 0.70 0.70 0.69 0.70 0.65 0.55 0.48 0.43 0.37 0.36 0.36 0.29 0.19 0.14 0.13 0.12 0.09 0.06 0.06 0.06 0.10 0.12 0.11 0.11 0.10 0.08 0.09 0.10
0.58 0.64 0.46 0.30 0.26 0.26 0.27 0.28 0.30 0.38 0.42 0.42 0.42 0.41 0.47 0.53 0.57 0.56 0.53 0.49 0.42 0.35 0.30 0.27 0.23 0.21 0.20 0.16 0.14 0.15 0.16 0.13 0.11 0.12 0.11 0.09 0.09 0.07 0.07 0.08 0.07 0.08 0.09 0.11
0.66 0.65 0.51 0.41 0.30 0.26 0.28 0.30 0.34 0.38 0.37 0.34 0.30 0.28 0.29 0.32 0.34 0.32 0.30 0.27 0.24 0.21 0.18 0.15 0.12 0.10 0.10 0.09 0.10 0.15 0.14 0.11 0.10 0.11 0.11 0.11 0.10 0.04 0.03 0.04 0.02 0.04 0.08 0.09
0.78 0.63 0.50 0.48 0.39 0.34 0.33 0.30 0.27 0.24 0.24 0.27 0.26 0.25 0.25 0.25 0.24 0.22 0.18 0.16 0.15 0.13 0.11 0.09 0.06 0.05 0.05 0.05 0.07 0.13 0.13 0.10 0.07 0.07 0.07 0.09 0.13 0.11 0.03 0.01 0.01 0.02 0.03 0.05
0.49 0.40 0.37 0.36 0.36 0.39 0.31 0.24 0.21 0.17 0.14 0.17 0.21 0.20 0.19 0.19 0.17 0.13 0.12 0.11 0.10 0.09 0.07 0.05 0.04 0.04 0.04 0.03 0.04 0.07 0.10 0.08 0.06 0.05 0.06 0.07 0.12 0.18 0.16 0.09 0.04 0.04 0.03 0.04
0.37 0.39 0.42 0.32 0.26 0.25 0.18 0.16 0.14 0.12 0.10 0.11 0.13 0.13 0.13 0.11 0.10 0.08 0.08 0.06 0.05 0.04 0.02 0.02 0.02 0.03 0.02 0.02 0.03 0.04 0.07 0.04 0.03 0.05 0.05 0.07 0.09 0.11 0.14 0.17 0.19 0.18 0.09 0.04
0.32 0.31 0.29 0.20 0.14 0.14 0.10 0.08 0.08 0.09 0.09 0.10 0.09 0.09 0.08 0.08 0.06 0.05 0.04 0.02 0.02 0.02 0.01 0.02 0.03 0.03 0.02 0.01 0.02 0.04 0.05 0.07 0.06 0.04 0.04 0.05 0.06 0.08 0.09 0.12 0.15 0.17 0.15 0.11
0.22 0.18 0.13 0.11 0.11 0.12 0.10 0.08 0.07 0.07 0.07 0.08 0.07 0.07 0.05 0.04 0.03 0.03 0.02 0.01 0.02 0.03 0.02 0.02 0.02 0.02 0.01 0.01 0.02 0.04 0.03 0.01 0.02 0.03 0.02 0.03 0.04 0.06 0.07 0.10 0.14 0.17 0.17 0.15
0.15 0.14 0.12 0.10 0.09 0.10 0.09 0.07 0.06 0.05 0.05 0.06 0.05 0.04 0.02 0.02 0.02 0.03 0.02 0.01 0.01 0.01 0.01 0.01 0.01 0.00 0.00 0.01 0.01 0.02 0.03 0.01 0.01 0.01 0.02 0.03 0.03 0.03 0.05 0.08 0.12 0.17 0.17 0.13
0.08 0.08 0.08 0.07 0.05 0.05 0.04 0.04 0.03 0.03 0.03 0.02 0.02 0.01 0.02 0.02 0.02 0.02 0.01 0.00 0.00 0.00 0.00 0.00 0.00 0.00 0.00 0.00 0.01 0.01 0.01 0.01 0.01 0.01 0.01 0.01 0.01 0.02 0.04 0.06 0.09 0.12 0.14 0.15
0.05 0.04 0.04 0.03 0.02 0.02 0.02 0.02 0.02 0.01 0.01 0.01 0.01 0.01 0.01 0.01 0.01 0.00 0.00 0.00 0.00 0.01 0.01 0.00 0.00 0.00 0.00 0.01 0.00 0.01 0.00 0.00 0.00 0.01 0.00 0.00 0.01 0.02 0.03 0.05 0.07 0.09 0.11 0.14
0.03 0.02 0.02 0.02 0.02 0.02 0.02 0.01 0.01 0.00 0.01 0.02 0.02 0.00 0.00 0.00 0.00 0.00 0.00 0.00 0.00 0.00 0.00 0.00 0.00 0.00 0.00 0.00 0.00 0.00 0.00 0.00 0.00 0.00 0.00 0.00 0.01 0.01 0.02 0.03 0.04 0.07 0.09 0.13
0.03 0.02 0.01 0.01 0.01 0.01 0.01 0.01 0.01 0.01 0.01 0.02 0.01 0.00 0.00 0.00 0.00 0.00 0.00 0.01 0.01 0.00 0.00 0.00 0.00 0.00 0.00 0.00 0.00 0.00 0.00 0.00 0.00 0.00 0.00 0.00 0.01 0.01 0.01 0.02 0.02 0.04 0.06 0.08
0.03 0.02 0.01 0.01 0.01 0.01 0.01 0.02 0.01 0.01 0.02 0.02 0.01 0.00 0.00 0.00 0.00 0.00 0.00 0.00 0.01 0.00 0.00 0.00 0.00 0.00 0.00 0.00 0.00 0.00 0.00 0.00 0.00 0.00 0.00 0.00 0.00 0.01 0.01 0.01 0.01 0.02 0.03 0.04
0.07 0.04 0.02 0.01 0.01 0.02 0.02 0.02 0.02 0.02 0.02 0.01 0.00 0.00 0.00 0.00 0.00 0.00 0.00 0.00 0.00 0.00 0.00 0.00 0.00 0.00 0.00 0.00 0.00 0.00 0.00 0.00 0.00 0.00 0.00 0.00 0.00 0.00 0.00 0.00 0.01 0.01 0.01 0.02
0.09 0.06 0.04 0.03 0.02 0.03 0.03 0.02 0.03 0.03 0.01 0.01 0.00 0.00 0.00 0.00 0.00 0.00 0.00 0.00 0.00 0.00 0.00 0.00 0.00 0.00 0.00 0.00 0.00 0.00 0.00 0.00 0.00 0.00 0.00 0.00 0.00 0.00 0.00 0.00 0.00 0.00 0.01 0.01
0.11 0.08 0.06 0.05 0.06 0.05 0.04 0.03 0.03 0.02 0.01 0.00 0.00 0.00 0.00 0.00 0.00 0.00 0.00 0.00 0.00 0.00 0.00 0.00 0.00 0.00 0.00 0.00 0.00 0.00 0.00 0.00 0.00 0.00 0.00 0.00 0.00 0.00 0.00 0.00 0.00 0.00 0.00 0.00
0.16 0.14 0.11 0.09 0.08 0.06 0.03 0.03 0.03 0.01 0.00 0.00 0.00 0.00 0.00 0.00 0.00 0.00 0.00 0.00 0.00 0.00 0.00 0.00 0.00 0.00 0.00 0.00 0.00 0.00 0.00 0.00 0.00 0.00 0.00 0.00 0.00 0.00 0.00 0.00 0.00 0.00 0.00 0.00
0.22 0.16 0.13 0.09 0.06 0.03 0.02 0.02 0.01 0.00 0.00 0.00 0.00 0.00 0.00 0.00 0.00 0.00 0.00 0.00 0.00 0.00 0.00 0.00 0.00 0.00 0.00 0.00 0.00 0.00 0.00 0.00 0.00 0.00 0.00 0.00 0.00 0.00 0.00 0.00 0.00 0.00 0.00 0.00

GEFSNGP_prec_meanprecacc_114.txt.gz
Total_Precipitation_Accumulation
0.20 0.20 0.17 0.14 0.13 0.14 0.17 0.21 0.33 0.49 0.71 0.92 1.15 1.27 1.37 1.43 1.35 1.21 1.16 1.04 0.90 0.86 0.82 0.71 0.68 0.65 0.60 0.56 0.52 0.46 0.42 0.43 0.47 0.48 0.48 0.45 0.42 0.39 0.39 0.37 0.32 0.31 0.29 0.25
0.18 0.18 0.19 0.18 0.17 0.15 0.21 0.27 0.39 0.59 0.87 1.11 1.26 1.29 1.35 1.41 1.33 1.27 1.24 1.22 1.19 1.16 1.11 0.95 0.79 0.70 0.65 0.60 0.56 0.51 0.51 0.53 0.54 0.51 0.48 0.46 0.44 0.41 0.41 0.38 0.32 0.27 0.23 0.19
0.19 0.15 0.24 0.39 0.30 0.24 0.31 0.37 0.50 0.70 0.85 0.99 1.13 1.27 1.28 1.28 1.34 1.39 1.48 1.53 1.48 1.33 1.19 1.04 0.92 0.84 0.78 0.72 0.67 0.65 0.64 0.60 0.54 0.49 0.46 0.43 0.38 0.39 0.37 0.31 0.26 0.23 0.18 0.14
0.22 0.25 0.46 0.48 0.29 0.30 0.43 0.53 0.56 0.62 0.66 0.81 1.01 1.12 1.15 1.21 1.33 1.44 1.47 1.43 1.34 1.20 1.07 1.00 0.99 0.94 0.83 0.75 0.70 0.67 0.64 0.58 0.49 0.41 0.38 0.38 0.38 0.34 0.28 0.24 0.22 0.20 0.16 0.13
0.29 0.40 0.52 0.57 0.35 0.34 0.48 0.62 0.53 0.59 0.59 0.71 0.79 0.90 1.07 1.16 1.25 1.34 1.29 1.22 1.20 1.17 1.09 1.08 1.05 0.95 0.85 0.77 0.68 0.62 0.57 0.46 0.36 0.30 0.29 0.29 0.27 0.24 0.22 0.22 0.21 0.16 0.12 0.12
0.41 0.50 0.63 0.63 0.32 0.27 0.47 0.81 0.63 0.65 0.65 0.66 0.73 0.92 0.98 1.00 0.98 1.01 1.02 1.07 1.15 1.24 1.27 1.21 1.07 0.87 0.76 0.68 0.57 0.48 0.38 0.30 0.25 0.22 0.18 0.16 0.17 0.18 0.19 0.19 0.17 0.12 0.10 0.12
0.55 0.69 0.73 0.36 0.18 0.30 0.67 0.79 0.65 0.64 0.69 0.69 0.75 0.80 0.69 0.70 0.80 0.87 0.94 1.02 1.07 1.12 1.11 1.03 0.91 0.78 0.70 0.59 0.47 0.34 0.25 0.20 0.17 0.13 0.10 0.10 0.14 0.16 0.16 0.14 0.14 0.13 0.13 0.15
0.61 0.75 0.81 0.33 0.22 0.40 0.52 0.45 0.45 0.49 0.54 0.54 0.55 0.58 0.62 0.65 0.70 0.76 0.86 0.93 0.92 0.89 0.85 0.74 0.64 0.60 0.59 0.50 0.34 0.23 0.18 0.16 0.12 0.09 0.05 0.06 0.13 0.16 0.15 0.16 0.16 0.15 0.15 0.15
0.70 0.80 0.59 0.30 0.27 0.31 0.37 0.37 0.36 0.41 0.43 0.46 0.49 0.54 0.64 0.72 0.75 0.74 0.73 0.74 0.70 0.61 0.54 0.49 0.43 0.43 0.43 0.35 0.24 0.19 0.18 0.17 0.13 0.09 0.08 0.07 0.12 0.14 0.14 0.15 0.13 0.11 0.12 0.14
0.60 0.66 0.46 0.31 0.27 0.27 0.28 0.28 0.30 0.39 0.42 0.42 0.43 0.43 0.50 0.57 0.61 0.61 0.57 0.53 0.47 0.40 0.35 0.32 0.28 0.26 0.24 0.20 0.18 0.19 0.21 0.18 0.15 0.15 0.13 0.11 0.11 0.09 0.10 0.10 0.10 0.10 0.12 0.15
0.68 0.66 0.51 0.42 0.32 0.28 0.29 0.30 0.34 0.38 0.38 0.35 0.30 0.29 0.30 0.34 0.37 0.36 0.33 0.31 0.27 0.25 0.22 0.19 0.15 0.14 0.13 0.12 0.14 0.20 0.19 0.15 0.13 0.13 0.13 0.13 0.11 0.05 0.04 0.05 0.03 0.06 0.10 0.12
0.79 0.64 0.51 0.49 0.41 0.34 0.33 0.30 0.27 0.24 0.24 0.27 0.27 0.25 0.26 0.27 0.27 0.26 0.22 0.20 0.18 0.17 0.15 0.12 0.09 0.08 0.07 0.07 0.10 0.18 0.17 0.13 0.10 0.08 0.08 0.09 0.15 0.12 0.03 0.01 0.01 0.02 0.03 0.05
0.49 0.40 0.37 0.37 0.37 0.39 0.31 0.24 0.21 0.17 0.14 0.18 0.21 0.21 0.20 0.21 0.20 0.17 0.16 0.15 0.15 0.14 0.10 0.08 0.06 0.06 0.05 0.05 0.06 0.11 0.14 0.11 0.07 0.06 0.06 0.08 0.13 0.20 0.18 0.10 0.04 0.04 0.03 0.04
0.37 0.39 0.42 0.33 0.27 0.25 0.18 0.16 0.14 0.12 0.10 0.12 0.14 0.15 0.14 0.14 0.12 0.11 0.12 0.10 0.09 0.06 0.04 0.05 0.05 0.05 0.04 0.03 0.04 0.06 0.08 0.05 0.04 0.06 0.06 0.07 0.10 0.12 0.16 0.20 0.22 0.19 0.09 0.04
0.32 0.31 0.29 0.20 0.14 0.14 0.11 0.08 0.08 0.09 0.10 0.11 0.10 0.10 0.09 0.09 0.08 0.07 0.06 0.04 0.04 0.04 0.03 0.03 0.05 0.05 0.03 0.02 0.03 0.05 0.06 0.08 0.07 0.05 0.05 0.05 0.06 0.08 0.09 0.13 0.17 0.19 0.17 0.11
0.22 0.18 0.13 0.11 0.11 0.12 0.10 0.08 0.07 0.07 0.07 0.08 0.08 0.08 0.06 0.05 0.04 0.04 0.04 0.03 0.04 0.05 0.03 0.04 0.05 0.04 0.02 0.02 0.03 0.05 0.04 0.02 0.03 0.03 0.03 0.03 0.04 0.06 0.07 0.10 0.14 0.18 0.18 0.16
0.15 0.14 0.12 0.10 0.09 0.10 0.09 0.07 0.06 0.06 0.05 0.06 0.06 0.04 0.03 0.03 0.03 0.04 0.02 0.02 0.03 0.02 0.02 0.02 0.03 0.02 0.01 0.01 0.02 0.03 0.03 0.01 0.01 0.02 0.03 0.03 0.03 0.04 0.06 0.08 0.13 0.17 0.17 0.14
0.08 0.08 0.08 0.07 0.05 0.05 0.04 0.04 0.04 0.03 0.03 0.03 0.02 0.02 0.02 0.03 0.03 0.02 0.01 0.01 0.01 0.01 0.00 0.00 0.01 0.00 0.00 0.00 0.01 0.01 0.01 0.01 0.01 0.02 0.02 0.01 0.01 0.03 0.05 0.07 0.09 0.12 0.15 0.15
0.05 0.04 0.04 0.03 0.02 0.02 0.02 0.02 0.02 0.01 0.01 0.01 0.02 0.01 0.01 0.01 0.01 0.01 0.00 0.00 0.01 0.02 0.01 0.00 0.00 0.00 0.01 0.01 0.00 0.01 0.00 0.00 0.00 0.01 0.00 0.00 0.01 0.02 0.04 0.05 0.07 0.09 0.11 0.14
0.03 0.02 0.02 0.02 0.02 0.02 0.02 0.01 0.01 0.00 0.01 0.02 0.02 0.01 0.00 0.00 0.00 0.00 0.00 0.00 0.01 0.01 0.00 0.00 0.00 0.00 0.00 0.00 0.00 0.00 0.00 0.00 0.00 0.00 0.00 0.00 0.01 0.01 0.02 0.03 0.05 0.07 0.09 0.13
0.03 0.02 0.01 0.01 0.01 0.01 0.01 0.01 0.01 0.01 0.01 0.02 0.01 0.00 0.00 0.00 0.00 0.00 0.00 0.01 0.01 0.00 0.00 0.00 0.00 0.00 0.00 0.00 0.00 0.00 0.00 0.00 0.00 0.00 0.00 0.00 0.01 0.01 0.01 0.02 0.02 0.04 0.06 0.08
0.03 0.02 0.01 0.01 0.01 0.01 0.01 0.02 0.01 0.01 0.02 0.02 0.01 0.00 0.00 0.00 0.00 0.00 0.00 0.00 0.01 0.00 0.00 0.00 0.00 0.00 0.00 0.00 0.00 0.00 0.00 0.00 0.00 0.00 0.00 0.00 0.00 0.01 0.01 0.01 0.01 0.02 0.03 0.04
0.07 0.04 0.02 0.01 0.01 0.02 0.02 0.02 0.02 0.02 0.02 0.01 0.00 0.00 0.00 0.00 0.00 0.00 0.00 0.00 0.00 0.00 0.00 0.00 0.00 0.00 0.00 0.00 0.00 0.00 0.00 0.00 0.00 0.00 0.00 0.00 0.00 0.00 0.00 0.00 0.01 0.01 0.01 0.02
0.09 0.06 0.04 0.03 0.02 0.03 0.03 0.02 0.03 0.03 0.01 0.01 0.00 0.00 0.00 0.00 0.00 0.00 0.00 0.00 0.00 0.00 0.00 0.00 0.00 0.00 0.00 0.00 0.00 0.00 0.00 0.00 0.00 0.00 0.00 0.00 0.00 0.00 0.00 0.00 0.00 0.00 0.01 0.01
0.11 0.08 0.06 0.05 0.06 0.05 0.04 0.03 0.03 0.02 0.01 0.00 0.00 0.00 0.00 0.00 0.00 0.00 0.00 0.00 0.00 0.00 0.00 0.00 0.00 0.00 0.00 0.00 0.00 0.00 0.00 0.00 0.00 0.00 0.00 0.00 0.00 0.00 0.00 0.00 0.00 0.00 0.00 0.00
0.16 0.14 0.11 0.09 0.08 0.06 0.03 0.03 0.03 0.01 0.00 0.00 0.00 0.00 0.00 0.00 0.00 0.00 0.00 0.00 0.00 0.00 0.00 0.00 0.00 0.00 0.00 0.00 0.00 0.00 0.00 0.00 0.00 0.00 0.00 0.00 0.00 0.00 0.00 0.00 0.00 0.00 0.00 0.00
0.22 0.16 0.13 0.09 0.07 0.03 0.02 0.02 0.01 0.00 0.00 0.00 0.00 0.00 0.00 0.00 0.00 0.00 0.00 0.00 0.00 0.00 0.00 0.00 0.00 0.00 0.00 0.00 0.00 0.00 0.00 0.00 0.00 0.00 0.00 0.00 0.00 0.00 0.00 0.00 0.00 0.00 0.00 0.00